EN

Hourly Weather Burowo

Today, 16 April, Friday

Time Temperature Precipitation Wind Pressure Humidity
00:00 +1°C° 0 mm 6 mps 763 mmHg 76%
01:00 +1°C° 0 mm 6 mps 763 mmHg 77%
02:00 +1°C° 0 mm 5 mps 763 mmHg 80%
03:00 +1°C° 0 mm 5 mps 763 mmHg 83%
04:00 +1°C° 0 mm 5 mps 763 mmHg 86%
05:00 +1°C° 0 mm 5 mps 763 mmHg 83%
06:00 +2°C° 0 mm 5 mps 763 mmHg 81%
07:00 +2°C° 0 mm 5 mps 763 mmHg 79%
08:00 +3°C° 0 mm 5 mps 763 mmHg 73%
09:00 +4°C° 0 mm 6 mps 763 mmHg 66%
10:00 +5°C° 0 mm 6 mps 763 mmHg 60%
11:00 +7°C° 0 mm 6 mps 763 mmHg 59%
12:00 +7°C° 0 mm 6 mps 763 mmHg 58%
13:00 +7°C° 0 mm 6 mps 763 mmHg 58%
14:00 +5°C° 0 mm 6 mps 763 mmHg 68%
15:00 +4°C° 0 mm 6 mps 763 mmHg 78%
16:00 +2°C° 0 mm 5 mps 763 mmHg 88%
17:00 +2°C° 0 mm 5 mps 763 mmHg 89%
18:00 +2°C° 0 mm 5 mps 762 mmHg 89%
19:00 +2°C° 0 mm 5 mps 762 mmHg 89%
20:00 +2°C° 0.1 mm 5 mps 762 mmHg 90%
21:00 +2°C° 0.1 mm 5 mps 762 mmHg 92%
22:00 +3°C° 0.1 mm 4 mps 762 mmHg 93%
23:00 +3°C° 0.2 mm 4 mps 762 mmHg 94%

Tomorrow, 17 April, Saturday

Time Temperature Precipitation Wind Pressure Humidity
00:00 +3°C° 0.2 mm 4 mps 762 mmHg 95%
01:00 +3°C° 0.2 mm 3 mps 761 mmHg 96%
02:00 +3°C° 0 mm 3 mps 761 mmHg 96%
03:00 +3°C° 0 mm 3 mps 761 mmHg 97%
04:00 +4°C° 0 mm 2 mps 761 mmHg 97%
05:00 +5°C° 0 mm 2 mps 761 mmHg 96%
06:00 +5°C° 0 mm 2 mps 762 mmHg 95%
07:00 +5°C° 0 mm 3 mps 762 mmHg 93%
08:00 +5°C° 0 mm 3 mps 762 mmHg 91%
09:00 +7°C° 0 mm 3 mps 762 mmHg 89%
10:00 +8°C° 0 mm 3 mps 762 mmHg 86%
11:00 +8°C° 0 mm 3 mps 762 mmHg 84%
12:00 +8°C° 0 mm 4 mps 762 mmHg 82%
13:00 +10°C° 0 mm 4 mps 762 mmHg 80%
14:00 +8°C° 0 mm 4 mps 762 mmHg 83%
15:00 +7°C° 0 mm 4 mps 762 mmHg 86%
16:00 +6°C° 0 mm 4 mps 762 mmHg 89%
17:00 +6°C° 0 mm 4 mps 762 mmHg 90%
18:00 +5°C° 0 mm 3 mps 762 mmHg 92%
19:00 +5°C° 0 mm 3 mps 762 mmHg 94%
20:00 +6°C° 0 mm 2 mps 762 mmHg 93%
21:00 +6°C° 0 mm 2 mps 762 mmHg 93%
22:00 +7°C° 0 mm 2 mps 762 mmHg 92%
23:00 +7°C° 0 mm 2 mps 762 mmHg 92%

Day after tomorrow, 18 April, Sunday

Time Temperature Precipitation Wind Pressure Humidity
00:00 +7°C° 0 mm 2 mps 762 mmHg 91%
01:00 +7°C° 0 mm 3 mps 761 mmHg 91%
02:00 +7°C° 0 mm 3 mps 761 mmHg 92%
03:00 +5°C° 0 mm 3 mps 761 mmHg 93%
04:00 +5°C° 0 mm 3 mps 761 mmHg 94%
05:00 +7°C° 0.1 mm 3 mps 761 mmHg 93%
06:00 +7°C° 0.1 mm 3 mps 761 mmHg 91%
07:00 +7°C° 0.1 mm 3 mps 761 mmHg 90%
08:00 +9°C° 0 mm 3 mps 761 mmHg 84%
09:00 +10°C° 0 mm 3 mps 761 mmHg 79%
10:00 +12°C° 0 mm 3 mps 761 mmHg 73%
11:00 +11°C° 0.6 mm 4 mps 761 mmHg 77%
12:00 +11°C° 0.6 mm 4 mps 761 mmHg 80%
13:00 +11°C° 0.6 mm 4 mps 761 mmHg 83%
14:00 +10°C° 0.8 mm 3 mps 761 mmHg 84%
15:00 +10°C° 0.8 mm 3 mps 761 mmHg 86%
16:00 +10°C° 0.8 mm 3 mps 761 mmHg 87%
17:00 +9°C° 0.1 mm 3 mps 761 mmHg 90%
18:00 +8°C° 0.1 mm 2 mps 761 mmHg 92%
19:00 +8°C° 0.1 mm 2 mps 761 mmHg 95%
20:00 +8°C° 0.3 mm 2 mps 761 mmHg 95%
21:00 +7°C° 0.3 mm 2 mps 761 mmHg 96%
22:00 +7°C° 0.3 mm 2 mps 761 mmHg 96%
23:00 +8°C° 0.2 mm 2 mps 761 mmHg 96%

19 April, Monday

Time Temperature Precipitation Wind Pressure Humidity
00:00 +8°C° 0.2 mm 2 mps 761 mmHg 96%
01:00 +8°C° 0.2 mm 2 mps 761 mmHg 96%
02:00 +8°C° 0 mm 2 mps 761 mmHg 96%
03:00 +8°C° 0 mm 2 mps 761 mmHg 96%
04:00 +7°C° 0 mm 2 mps 761 mmHg 96%
05:00 +8°C° 0.1 mm 2 mps 761 mmHg 95%
06:00 +8°C° 0.1 mm 2 mps 761 mmHg 94%
07:00 +8°C° 0.1 mm 2 mps 761 mmHg 92%
08:00 +9°C° 0 mm 2 mps 761 mmHg 88%
09:00 +10°C° 0 mm 3 mps 760 mmHg 85%
10:00 +11°C° 0 mm 3 mps 760 mmHg 81%
11:00 +12°C° 0 mm 3 mps 760 mmHg 71%
12:00 +14°C° 0 mm 4 mps 760 mmHg 60%
13:00 +17°C° 0 mm 4 mps 760 mmHg 50%
14:00 +15°C° 0.1 mm 4 mps 760 mmHg 55%
15:00 +14°C° 0.1 mm 4 mps 759 mmHg 60%
16:00 +13°C° 0.1 mm 4 mps 759 mmHg 65%
17:00 +12°C° 0 mm 3 mps 759 mmHg 69%
18:00 +11°C° 0 mm 3 mps 759 mmHg 72%
19:00 +10°C° 0 mm 3 mps 759 mmHg 76%
20:00 +9°C° 0 mm 3 mps 759 mmHg 77%
21:00 +9°C° 0 mm 2 mps 759 mmHg 78%
22:00 +8°C° 0 mm 2 mps 760 mmHg 79%
23:00 +8°C° 0 mm 2 mps 760 mmHg 81%

20 April, Tuesday

Time Temperature Precipitation Wind Pressure Humidity
00:00 +8°C° 0 mm 2 mps 760 mmHg 82%
01:00 +7°C° 0 mm 2 mps 759 mmHg 84%
02:00 +7°C° 0 mm 2 mps 759 mmHg 84%
03:00 +7°C° 0 mm 2 mps 759 mmHg 85%
04:00 +7°C° 0 mm 1 mps 760 mmHg 85%
05:00 +8°C° 0 mm 1 mps 759 mmHg 81%
06:00 +9°C° 0 mm 1 mps 759 mmHg 77%
07:00 +10°C° 0 mm 1 mps 759 mmHg 73%
08:00 +11°C° 0 mm 1 mps 759 mmHg 67%
09:00 +12°C° 0 mm 2 mps 759 mmHg 61%
10:00 +13°C° 0 mm 2 mps 759 mmHg 56%
11:00 +14°C° 0.1 mm 2 mps 759 mmHg 54%
12:00 +14°C° 0.1 mm 2 mps 759 mmHg 52%
13:00 +14°C° 0.1 mm 2 mps 758 mmHg 50%
14:00 +14°C° 0.1 mm 2 mps 758 mmHg 55%
15:00 +13°C° 0.1 mm 2 mps 758 mmHg 60%
16:00 +12°C° 0.1 mm 3 mps 758 mmHg 65%
17:00 +12°C° 0 mm 2 mps 758 mmHg 69%
18:00 +10°C° 0 mm 2 mps 757 mmHg 74%
19:00 +9°C° 0 mm 2 mps 757 mmHg 79%
20:00 +9°C° 0 mm 1 mps 757 mmHg 81%
21:00 +8°C° 0 mm 1 mps 757 mmHg 83%
22:00 +7°C° 0 mm 1 mps 757 mmHg 85%
23:00 +7°C° 0 mm 1 mps 757 mmHg 86%

21 April, Wednesday

Time Temperature Precipitation Wind Pressure Humidity
00:00 +7°C° 0 mm 1 mps 757 mmHg 86%
01:00 +6°C° 0 mm 1 mps 757 mmHg 87%
02:00 +6°C° 0 mm 1 mps 757 mmHg 87%
03:00 +6°C° 0 mm 1 mps 756 mmHg 87%
04:00 +6°C° 0 mm 1 mps 756 mmHg 87%
05:00 +7°C° 0 mm 1 mps 756 mmHg 84%
06:00 +8°C° 0 mm 1 mps 756 mmHg 80%
07:00 +9°C° 0 mm 1 mps 756 mmHg 77%
08:00 +10°C° 0.1 mm 1 mps 756 mmHg 73%
09:00 +10°C° 0.1 mm 2 mps 756 mmHg 70%
10:00 +12°C° 0.1 mm 2 mps 755 mmHg 66%
11:00 +12°C° 0.3 mm 2 mps 755 mmHg 65%
12:00 +12°C° 0.3 mm 3 mps 755 mmHg 64%
13:00 +12°C° 0.3 mm 3 mps 754 mmHg 63%
14:00 +12°C° 0.3 mm 3 mps 754 mmHg 62%
15:00 +13°C° 0.3 mm 3 mps 753 mmHg 62%
16:00 +13°C° 0.3 mm 3 mps 753 mmHg 61%
17:00 +11°C° 0.2 mm 3 mps 753 mmHg 67%
18:00 +10°C° 0.2 mm 2 mps 753 mmHg 72%
19:00 +9°C° 0.2 mm 2 mps 752 mmHg 78%
20:00 +8°C° 0.2 mm 3 mps 752 mmHg 82%
21:00 +7°C° 0.2 mm 3 mps 752 mmHg 86%
22:00 +5°C° 0.2 mm 4 mps 752 mmHg 91%
23:00 +4°C° 1.5 mm 3 mps 752 mmHg 90%
Show more

We Need Your Consent

Meteoprog and our Service Providers may store and access personal data such as cookies, device identifiers or other similar technologies on your device and process such data to personalise content and ads, as well as provide social media features and to analyse the traffic.

  • Store and/or access information on your device

    Cookies, device identifiers or other information can be stored or accessed on your device for the purposes indicated above.

  • Personalised ads and content, ad and content measurement, audience insights, and products development

    Ads and content can be personalised based on a profile. More data can be added to better personalise ads and content. Ad and content performance can be measured. Insights about the audience who saw the ads and content can be derived. Such data can be used to develop or improve user’s experience, systems and software.

By clicking ‘I Agree’ you will allow the use of indicated cookies, device identifiers, web beacons or other similar technologies. Your settings can be changed in the browser on your device.

For certain purposes, legitimate interests may be relied on, rather than consent. You can read more about this in our Privacy and Cookie Policy.